Location: Austin
(30.3000°N, 97.7500°W)
Time: 11:34:10
(UTC-05:00)

Cosmos 468 Rocket - Pass Details

Date: 05 September 2024
Orbit: 742 x 776 km, 74.0° (Epoch: 10 September)

Event Time Altitude Azimuth Distance (km) Brightness Sun altitude
Rises 20:04:27 0° 192° (SSW) 3,169 7.2 -4.3°
Reaches altitude 10° 20:06:48 10° 191° (S) 2,246 6.5 -4.8°
Maximum altitude 20:11:53 81° 105° (ESE) 754 3.9 -5.9°
Drops below altitude 10° 20:16:59 10° 18° (NNE) 2,256 6.4 -7.0°
Sets 20:19:21 0° 18° (NNE) 3,184 7.1 -7.5°
